Imperial, CA

10:19 AM PDT on May 23, 2018 (GMT -0700)
Imperial County

Weather History for KIPL - October, 2011

Change the Weather History Date:

Thursday, October 6, 2011

  Actual Average Record
Temperature  
Mean Temperature 68 °F -  
Max Temperature 77 °F 94 °F 108 °F (1996)
Min Temperature 59 °F 65 °F 52 °F (1998)
Cooling Degree Days 3    
Growing Degree Days 18 (Base 50)    
Moisture  
Dew Point 41 °F    
Average Humidity 41    
Maximum Humidity 53    
Minimum Humidity 24    
Precipitation  
Precipitation 0.00 in - - ()
Sea Level Pressure  
Sea Level Pressure 29.81 in    
Wind  
Wind Speed 13 mph (West)    
Max Wind Speed 21 mph    
Max Gust Speed 28 mph    
Visibility 10 miles    
Events      
Averages and records for this station are not official NWS values.
T = Trace of Precipitation, MM = Missing Value Source: NWS Daily Summary

Daily Weather History Graph

Daily Weather History Graph

Search for Another Location

Airport or City:

Astronomy

Oct. 06, 2011 Rise Set
Actual Time 6:39 AM PDT 6:20 PM PDT
Civil Twilight 6:15 AM PDT 6:45 PM PDT
Nautical Twilight 5:46 AM PDT 7:13 PM PDT
Astronomical Twilight 5:17 AM PDT 7:42 PM PDT
Moon 3:22 PM PDT (10/6) 1:48 AM PDT (10/6)
Length of Visible Light 12h 30m
Length of Day
11h 40m
Waxing Gibbous, 76% of the Moon is Illuminated
Oct 6
Waxing Gibbous
Oct 11
Full
Oct 19
Last Quarter
Oct 26
New
Nov 2
First Quarter

Hourly Weather History & Observations

Time (PDT) Temp. Dew Point Humidity Pressure Visibility Wind Dir Wind Speed Gust Speed Precip Events Conditions
12:53 AM 64.0 °F 45.0 °F 50% 29.77 in 10.0 mi WSW 13.8 mph - N/A   Clear
1:53 AM 63.0 °F 45.0 °F 52% 29.79 in 10.0 mi SW 9.2 mph - N/A   Clear
2:53 AM 61.0 °F 43.0 °F 52% 29.80 in 10.0 mi WSW 5.8 mph - N/A   Clear
3:53 AM 60.1 °F 41.0 °F 49% 29.80 in 10.0 mi WSW 11.5 mph - N/A   Clear
4:53 AM 59.0 °F 42.1 °F 53% 29.80 in 10.0 mi WSW 13.8 mph - N/A   Clear
5:53 AM 59.0 °F 41.0 °F 51% 29.82 in 10.0 mi WSW 6.9 mph - N/A   Clear
6:53 AM 60.1 °F 43.0 °F 53% 29.81 in 10.0 mi WSW 15.0 mph - N/A   Clear
7:53 AM 62.1 °F 44.1 °F 52% 29.84 in 10.0 mi North 4.6 mph - N/A   Clear
8:53 AM 66.0 °F 42.1 °F 42% 29.85 in 10.0 mi West 11.5 mph - N/A   Clear
9:53 AM 69.1 °F 41.0 °F 36% 29.84 in 10.0 mi WNW 15.0 mph 23.0 mph N/A   Clear
10:53 AM 72.0 °F 42.1 °F 34% 29.84 in 10.0 mi West 12.7 mph 20.7 mph N/A   Clear
11:53 AM 73.9 °F 39.9 °F 29% 29.82 in 10.0 mi WSW 16.1 mph - N/A   Clear
12:53 PM 75.0 °F 41.0 °F 29% 29.81 in 10.0 mi West 18.4 mph 27.6 mph N/A   Clear
1:53 PM 77.0 °F 39.0 °F 25% 29.79 in 10.0 mi WNW 18.4 mph 25.3 mph N/A   Clear
2:53 PM 77.0 °F 39.9 °F 26% 29.78 in 10.0 mi West 18.4 mph 24.2 mph N/A   Partly Cloudy
3:53 PM 75.9 °F 37.0 °F 24% 29.78 in 10.0 mi WNW 18.4 mph 26.5 mph N/A   Clear
4:53 PM 73.9 °F 37.0 °F 26% 29.78 in 10.0 mi WNW 18.4 mph 24.2 mph N/A   Clear
5:53 PM 71.6 °F 37.4 °F 29% 29.79 in 10.0 mi West 17.3 mph 23.0 mph N/A   Clear
6:53 PM 66.9 °F 39.0 °F 36% 29.81 in 10.0 mi WSW 19.6 mph 27.6 mph N/A   Clear
7:53 PM 64.9 °F 39.9 °F 40% 29.82 in 10.0 mi West 20.7 mph 25.3 mph N/A   Clear
8:53 PM 63.0 °F 41.0 °F 45% 29.83 in 10.0 mi WSW 16.1 mph - N/A   Clear
9:53 PM 62.1 °F 42.1 °F 48% 29.84 in 10.0 mi WSW 13.8 mph - N/A   Clear
10:53 PM 61.0 °F 42.1 °F 50% 29.85 in 10.0 mi West 12.7 mph - N/A   Clear
11:53 PM 60.1 °F 42.1 °F 51% 29.86 in 10.0 mi West 13.8 mph - N/A   Clear